When you browse on this site, cookies collect data to enhance your experience and personalize the content and advertising you see.
Visit our Privacy Policy to learn more. By continuing to use the site, you agree to this use of cookies and data.
  • Em Portugal
  • Lista de países
  • Para 7 dias
  • Temperatura da água
  • Mapa do tempo
  • Widgets de tempo
  • user-avatar
    Iniciar Sessão

    Previsão horária em Larisa

    Hoje, 10 Dezembro, Terça-feira

    Tempo Temperatura Precipitação Vento Pressão Humidade
    00:00 +10°C° 0 mm 0 m/s 750 mmHg 87%
    01:00 +10°C° 0 mm 0 m/s 750 mmHg 87%
    02:00 +10°C° 0 mm 0 m/s 750 mmHg 87%
    03:00 +9°C° 0 mm 0 m/s 750 mmHg 88%
    04:00 +9°C° 0 mm 0 m/s 750 mmHg 88%
    05:00 +9°C° 0 mm 0 m/s 749 mmHg 89%
    06:00 +9°C° 0 mm 0 m/s 749 mmHg 89%
    07:00 +9°C° 0 mm 0 m/s 749 mmHg 89%
    08:00 +10°C° 0 mm 0 m/s 749 mmHg 85%
    09:00 +12°C° 0 mm 1 m/s 749 mmHg 81%
    10:00 +13°C° 0 mm 1 m/s 749 mmHg 78%
    11:00 +13°C° 0.1 mm 1 m/s 749 mmHg 77%
    12:00 +14°C° 0.1 mm 1 m/s 748 mmHg 76%
    13:00 +14°C° 0 mm 1 m/s 748 mmHg 71%
    14:00 +14°C° 0.2 mm 1 m/s 748 mmHg 75%
    15:00 +13°C° 0.2 mm 1 m/s 748 mmHg 79%
    16:00 +13°C° 0.2 mm 1 m/s 748 mmHg 83%
    17:00 +12°C° 2 mm 1 m/s 748 mmHg 87%
    18:00 +12°C° 2 mm 1 m/s 748 mmHg 91%
    19:00 +12°C° 2 mm 1 m/s 748 mmHg 94%
    20:00 +12°C° 2.6 mm 1 m/s 748 mmHg 94%
    21:00 +12°C° 2.6 mm 1 m/s 748 mmHg 95%
    22:00 +12°C° 2.6 mm 2 m/s 748 mmHg 95%
    23:00 +12°C° 5.5 mm 2 m/s 748 mmHg 94%

    Amanhã, 11 Dezembro, Quarta-feira

    Tempo Temperatura Precipitação Vento Pressão Humidade
    00:00 +11°C° 5.5 mm 3 m/s 748 mmHg 94%
    01:00 +10°C° 5.5 mm 3 m/s 748 mmHg 94%
    02:00 +10°C° 5.3 mm 3 m/s 747 mmHg 94%
    03:00 +10°C° 5.3 mm 4 m/s 747 mmHg 93%
    04:00 +10°C° 5.3 mm 4 m/s 747 mmHg 93%
    05:00 +10°C° 2.5 mm 3 m/s 747 mmHg 92%
    06:00 +9°C° 2.5 mm 3 m/s 747 mmHg 91%
    07:00 +9°C° 2.5 mm 3 m/s 748 mmHg 90%
    08:00 +9°C° 3.2 mm 3 m/s 748 mmHg 90%
    09:00 +9°C° 3.2 mm 3 m/s 748 mmHg 91%
    10:00 +8°C° 3.2 mm 3 m/s 749 mmHg 91%
    11:00 +9°C° 1.6 mm 3 m/s 748 mmHg 88%
    12:00 +9°C° 1.6 mm 3 m/s 748 mmHg 86%
    13:00 +9°C° 1.6 mm 3 m/s 748 mmHg 83%
    14:00 +9°C° 0.1 mm 2 m/s 748 mmHg 83%
    15:00 +9°C° 0.1 mm 2 m/s 748 mmHg 83%
    16:00 +10°C° 0.1 mm 1 m/s 748 mmHg 84%
    17:00 +10°C° 0 mm 1 m/s 748 mmHg 84%
    18:00 +10°C° 0 mm 1 m/s 748 mmHg 84%
    19:00 +10°C° 0 mm 1 m/s 749 mmHg 84%
    20:00 +10°C° 0.2 mm 1 m/s 748 mmHg 85%
    21:00 +10°C° 0.2 mm 1 m/s 748 mmHg 86%
    22:00 +10°C° 0.2 mm 1 m/s 748 mmHg 86%
    23:00 +10°C° 0.1 mm 1 m/s 748 mmHg 86%

    Depois de amanhã, 12 Dezembro, Quinta-feira

    Tempo Temperatura Precipitação Vento Pressão Humidade
    00:00 +10°C° 0.2 mm 1 m/s 748 mmHg 86%
    01:00 +9°C° 0.2 mm 1 m/s 748 mmHg 87%
    02:00 +9°C° 0 mm 1 m/s 748 mmHg 87%
    03:00 +9°C° 0 mm 1 m/s 747 mmHg 87%
    04:00 +9°C° 0 mm 1 m/s 747 mmHg 87%
    05:00 +9°C° 0 mm 1 m/s 747 mmHg 87%
    06:00 +9°C° 0 mm 1 m/s 747 mmHg 88%
    07:00 +8°C° 0 mm 1 m/s 747 mmHg 89%
    08:00 +9°C° 0 mm 1 m/s 747 mmHg 84%
    09:00 +10°C° 0 mm 1 m/s 748 mmHg 80%
    10:00 +12°C° 0 mm 1 m/s 748 mmHg 76%
    11:00 +12°C° 0 mm 1 m/s 747 mmHg 74%
    12:00 +13°C° 0 mm 1 m/s 747 mmHg 72%
    13:00 +13°C° 0 mm 1 m/s 747 mmHg 70%
    14:00 +13°C° 0 mm 1 m/s 747 mmHg 73%
    15:00 +12°C° 0 mm 1 m/s 747 mmHg 76%
    16:00 +12°C° 0 mm 1 m/s 747 mmHg 79%
    17:00 +10°C° 0 mm 0 m/s 747 mmHg 81%
    18:00 +10°C° 0 mm 0 m/s 747 mmHg 82%
    19:00 +9°C° 0 mm 0 m/s 748 mmHg 84%
    20:00 +9°C° 0 mm 0 m/s 748 mmHg 85%
    21:00 +9°C° 0 mm 0 m/s 747 mmHg 86%
    22:00 +9°C° 0 mm 0 m/s 747 mmHg 86%
    23:00 +9°C° 0 mm 0 m/s 747 mmHg 87%

    13 Dezembro, Sexta-feira

    Tempo Temperatura Precipitação Vento Pressão Humidade
    00:00 +8°C° 0 mm 0 m/s 747 mmHg 88%
    01:00 +8°C° 0 mm 0 m/s 747 mmHg 88%
    02:00 +8°C° 0 mm 0 m/s 747 mmHg 88%
    03:00 +8°C° 0 mm 0 m/s 746 mmHg 89%
    04:00 +9°C° 0 mm 1 m/s 746 mmHg 89%
    05:00 +9°C° 0 mm 1 m/s 746 mmHg 89%
    06:00 +9°C° 0 mm 1 m/s 746 mmHg 88%
    07:00 +8°C° 0 mm 0 m/s 746 mmHg 88%
    08:00 +10°C° 0 mm 1 m/s 746 mmHg 84%
    09:00 +11°C° 0 mm 1 m/s 746 mmHg 80%
    10:00 +12°C° 0 mm 1 m/s 746 mmHg 76%
    11:00 +12°C° 0 mm 1 m/s 746 mmHg 73%
    12:00 +13°C° 0 mm 1 m/s 745 mmHg 71%
    13:00 +14°C° 0 mm 1 m/s 745 mmHg 68%
    14:00 +13°C° 0 mm 1 m/s 745 mmHg 71%
    15:00 +12°C° 0 mm 1 m/s 745 mmHg 74%
    16:00 +11°C° 0 mm 0 m/s 744 mmHg 77%
    17:00 +11°C° 0 mm 1 m/s 744 mmHg 78%
    18:00 +11°C° 0 mm 1 m/s 744 mmHg 79%
    19:00 +10°C° 0 mm 1 m/s 744 mmHg 80%
    20:00 +10°C° 0 mm 1 m/s 744 mmHg 80%
    21:00 +10°C° 0 mm 1 m/s 744 mmHg 80%
    22:00 +10°C° 0 mm 1 m/s 744 mmHg 80%
    23:00 +10°C° 0 mm 1 m/s 743 mmHg 80%

    14 Dezembro, Sábado

    Tempo Temperatura Precipitação Vento Pressão Humidade
    00:00 +10°C° 0 mm 1 m/s 743 mmHg 80%
    01:00 +9°C° 0 mm 1 m/s 742 mmHg 80%
    02:00 +9°C° 0 mm 2 m/s 741 mmHg 79%
    03:00 +9°C° 0 mm 2 m/s 740 mmHg 79%
    04:00 +9°C° 0 mm 2 m/s 740 mmHg 78%
    05:00 +9°C° 0.5 mm 2 m/s 739 mmHg 81%
    06:00 +9°C° 0.5 mm 2 m/s 739 mmHg 84%
    07:00 +9°C° 0.5 mm 2 m/s 739 mmHg 88%
    08:00 +9°C° 1.6 mm 2 m/s 740 mmHg 89%
    09:00 +9°C° 1.6 mm 2 m/s 740 mmHg 91%
    10:00 +10°C° 1.6 mm 2 m/s 740 mmHg 93%
    11:00 +10°C° 0.1 mm 2 m/s 740 mmHg 91%
    12:00 +10°C° 0.1 mm 2 m/s 741 mmHg 90%
    13:00 +12°C° 0.1 mm 2 m/s 741 mmHg 88%
    14:00 +10°C° 0.5 mm 2 m/s 741 mmHg 88%
    15:00 +10°C° 0.5 mm 2 m/s 742 mmHg 89%
    16:00 +10°C° 0.5 mm 2 m/s 743 mmHg 89%
    17:00 +10°C° 0.7 mm 2 m/s 744 mmHg 89%
    18:00 +10°C° 0.7 mm 2 m/s 746 mmHg 89%
    19:00 +10°C° 0.7 mm 2 m/s 747 mmHg 89%
    20:00 +10°C° 0.1 mm 2 m/s 748 mmHg 88%
    21:00 +12°C° 0.1 mm 2 m/s 749 mmHg 87%
    22:00 +12°C° 0.1 mm 2 m/s 750 mmHg 86%
    23:00 +12°C° 0 mm 2 m/s 751 mmHg 85%

    15 Dezembro, Domingo

    Tempo Temperatura Precipitação Vento Pressão Humidade
    00:00 +10°C° 0 mm 2 m/s 752 mmHg 85%
    01:00 +11°C° 0 mm 1 m/s 753 mmHg 85%
    02:00 +11°C° 0 mm 1 m/s 753 mmHg 84%
    03:00 +11°C° 0 mm 1 m/s 754 mmHg 84%
    04:00 +11°C° 0 mm 1 m/s 754 mmHg 83%
    05:00 +11°C° 0 mm 1 m/s 755 mmHg 83%
    06:00 +11°C° 0 mm 1 m/s 756 mmHg 83%
    07:00 +10°C° 0 mm 0 m/s 756 mmHg 83%
    08:00 +11°C° 0 mm 0 m/s 757 mmHg 79%
    09:00 +13°C° 0 mm 1 m/s 757 mmHg 76%
    10:00 +14°C° 0 mm 1 m/s 758 mmHg 72%
    11:00 +15°C° 0 mm 1 m/s 758 mmHg 71%
    12:00 +15°C° 0 mm 0 m/s 758 mmHg 70%
    13:00 +15°C° 0 mm 0 m/s 758 mmHg 69%
    14:00 +15°C° 0 mm 0 m/s 758 mmHg 73%
    15:00 +14°C° 0 mm 0 m/s 758 mmHg 77%
    16:00 +13°C° 0 mm 0 m/s 759 mmHg 81%
    17:00 +13°C° 0 mm 0 m/s 759 mmHg 82%
    18:00 +12°C° 0 mm 0 m/s 760 mmHg 83%
    19:00 +12°C° 0 mm 0 m/s 760 mmHg 85%
    20:00 +12°C° 0 mm 0 m/s 760 mmHg 85%
    21:00 +11°C° 0 mm 0 m/s 760 mmHg 86%
    22:00 +11°C° 0 mm 0 m/s 761 mmHg 86%
    23:00 +11°C° 0 mm 0 m/s 761 mmHg 86%
    Mostrar mais